Temperature
29 29 29 29 30 30 30 30 29 28 28 28 27 27 27 27 26 25 24 23 23 22 21 21 21 20 20 19 19 19 18 18 18 18 17 17 17 17 17 17 17 17 16 16
28 29 29 29 30 30 30 30 30 29 28 27 26 26 26 26 25 24 23 22 22 21 21 20 20 20 19 19 19 18 18 18 17 17 17 17 17 17 16 16 16 16 16 16
27 28 28 28 30 30 30 30 30 28 27 26 25 25 25 24 24 23 22 22 21 20 20 20 19 19 19 19 19 18 18 17 17 17 17 16 16 16 16 16 16 16 16 16
27 26 25 28 30 31 30 30 29 28 27 26 25 24 24 23 23 22 22 21 20 20 19 19 19 19 19 18 18 18 18 17 17 17 16 16 16 16 16 16 16 16 15 15
26 26 26 28 29 30 29 28 29 27 26 25 24 23 23 22 21 20 20 20 19 19 19 18 18 18 18 18 18 17 17 17 16 16 16 16 16 16 15 15 15 15 15 15
25 25 25 26 27 29 29 26 27 26 25 24 24 23 21 20 20 19 19 19 19 18 18 18 18 18 18 17 17 17 17 16 16 16 16 16 16 15 15 15 15 15 14 14
25 24 25 25 25 27 26 25 25 24 24 24 23 22 20 19 19 18 18 18 18 17 17 17 17 17 17 17 17 16 16 16 16 16 16 15 15 15 15 15 14 14 14 14
24 24 23 23 24 24 23 24 24 23 22 21 20 19 19 18 18 17 17 17 17 16 16 16 16 16 16 16 16 16 16 16 15 15 15 15 15 14 14 14 14 14 13 13
23 22 21 22 21 22 22 22 22 22 21 20 19 18 18 17 17 17 16 16 16 16 15 15 15 15 15 15 15 15 15 15 14 14 14 14 14 14 14 14 13 13 13 12
21 21 21 21 21 21 21 21 21 21 20 19 18 17 17 16 16 16 15 15 15 15 15 14 14 15 14 14 14 15 14 14 14 14 14 13 13 13 13 13 13 12 12 12
20 20 20 20 21 20 21 20 20 20 19 18 18 17 16 16 15 15 15 15 14 14 14 14 14 14 14 14 14 14 14 13 13 13 13 13 13 12 12 12 12 12 12 12
19 19 19 19 19 20 20 19 19 18 18 17 17 16 15 15 14 14 14 14 14 14 13 13 13 13 13 13 13 13 13 13 13 12 12 12 12 12 11 11 11 11 11 11
19 19 19 18 18 18 18 18 17 17 16 16 15 15 14 14 13 13 13 13 13 13 13 12 12 12 13 13 13 13 13 13 12 12 12 11 11 11 11 10 10 10 10 10
18 18 18 18 17 17 17 16 16 16 15 15 14 14 14 13 13 13 13 12 12 12 12 12 12 12 12 12 12 12 12 12 12 12 12 11 11 11 10 10 10 9 9 9
18 18 17 17 16 16 16 15 15 14 14 14 14 13 13 13 12 12 12 12 12 12 11 11 11 11 12 12 12 12 12 12 12 11 11 11 11 11 10 10 10 9 9 9
17 17 16 16 16 15 15 15 14 14 13 13 13 12 12 12 12 11 11 11 11 11 11 11 11 11 11 11 11 11 11 11 11 11 11 11 11 11 10 10 9 9 9 8
16 16 16 15 15 15 14 14 14 13 13 12 12 12 11 11 11 11 11 11 11 10 10 11 11 11 11 11 11 11 11 11 11 11 11 11 10 10 10 9 9 9 9 8
15 15 15 15 14 14 13 13 13 12 12 12 11 11 11 11 10 10 10 10 10 10 10 10 10 10 11 11 11 11 11 11 11 10 10 10 10 10 10 9 9 9 8 8
15 14 14 14 13 13 13 12 12 12 11 11 11 11 10 10 10 10 10 10 10 10 10 10 10 10 10 10 11 11 11 11 10 10 10 10 10 10 9 9 9 8 8 7
14 13 13 13 12 12 12 12 11 11 11 11 10 10 10 10 10 10 10 9 9 9 9 9 10 10 10 10 10 10 10 10 10 10 10 10 9 9 9 8 8 8 7 7
13 12 12 12 12 11 11 11 11 10 10 10 10 10 9 9 9 9 9 9 9 9 9 9 9 9 10 10 10 10 10 10 10 9 9 9 9 8 8 8 7 7 7 6
12 11 11 11 11 11 11 10 10 10 10 9 9 9 9 9 9 9 9 8 8 9 9 9 9 9 9 10 10 10 10 9 9 9 9 8 8 8 7 7 7 7 6 6
11 11 11 10 10 10 10 10 10 10 9 9 9 9 9 9 9 9 8 8 8 8 8 8 8 9 9 9 9 9 9 9 9 8 8 8 7 7 7 7 6 6 6 6
10 10 10 10 10 10 9 9 9 9 9 9 9 9 9 9 8 8 8 8 8 8 8 8 8 8 8 8 8 8 8 8 8 8 8 7 7 7 6 6 6 6 5 5
10 10 10 10 9 9 9 9 9 9 9 9 9 8 9 8 8 8 7 7 7 7 7 8 8 8 8 8 8 8 8 8 7 7 7 7 7 6 6 6 6 5 5 5
10 10 10 10 10 9 9 9 9 9 9 9 9 8 8 8 8 7 7 7 7 7 7 7 7 8 8 7 7 7 7 7 7 7 6 6 6 6 6 5 5 5 5 4
9 9 9 9 9 9 9 9 9 9 9 9 9 8 8 8 8 7 7 7 7 7 7 7 7 7 7 7 7 7 7 6 6 6 6 6 6 5 5 5 5 5 4 4
Wind_Speed
13 10 12 15 15 16 16 14 11 6 8 8 7 7 8 9 10 10 9 7 7 6 5 5 4 4 4 4 4 4 5 4 4 3 3 3 3 2 2 2 3 3 3 3
14 15 14 15 16 15 15 14 11 8 6 7 9 7 8 8 8 9 7 7 6 5 5 4 3 3 3 4 5 5 5 4 4 4 4 3 3 3 3 3 3 3 3 4
13 14 13 15 14 15 14 12 10 8 6 8 9 9 8 8 8 8 7 7 6 5 4 3 3 3 3 3 5 5 5 4 4 4 4 4 4 4 4 4 4 4 4 4
11 9 14 11 11 12 11 8 7 8 10 9 8 8 9 8 9 8 7 7 6 5 4 4 3 3 3 3 4 5 5 5 5 5 5 5 5 5 5 5 5 5 4 5
10 12 12 8 8 8 9 6 6 10 11 11 12 11 10 9 9 9 8 7 6 5 5 5 4 4 4 4 5 5 5 5 5 5 6 5 6 6 5 6 6 6 6 6
10 11 10 6 4 4 6 6 5 9 10 13 11 7 7 8 10 9 8 7 6 7 7 6 6 6 5 5 5 5 5 5 5 5 6 6 6 7 6 6 7 7 8 8
13 10 4 1 3 3 6 5 8 10 10 11 7 9 10 10 11 10 9 9 8 8 8 7 7 6 6 6 6 6 6 7 7 7 7 7 7 7 7 7 8 8 8 8
12 11 4 3 3 1 4 8 9 12 12 13 15 16 14 12 11 10 9 9 9 8 8 8 7 7 7 7 7 7 8 9 8 8 7 8 8 7 7 7 8 7 7 8
2 2 6 7 8 6 6 9 10 13 14 16 16 15 14 12 11 10 9 9 8 9 9 8 8 8 8 8 8 9 9 10 10 10 9 8 8 7 6 5 6 6 7 7
5 8 8 8 8 8 7 10 11 12 14 15 16 15 13 12 11 10 9 9 8 9 9 9 9 9 8 8 8 9 11 10 10 11 12 12 10 9 8 7 6 6 7 7
5 6 6 7 8 8 10 11 12 13 14 15 15 15 14 12 11 10 9 9 9 9 9 9 8 9 8 8 9 10 11 11 11 12 12 12 13 11 10 9 7 7 7 7
4 5 5 7 6 8 11 12 13 14 14 14 14 14 13 12 10 10 10 10 10 10 10 10 9 10 8 7 8 10 10 10 9 9 9 10 11 13 18 15 17 18 15 12
6 7 8 8 7 9 12 13 13 13 14 13 13 13 13 12 10 11 11 11 10 10 10 10 10 10 9 8 8 9 9 9 8 9 9 9 9 10 10 11 16 17 15 14
8 10 9 8 9 11 13 14 14 13 13 13 13 13 12 12 12 12 11 11 11 11 11 11 11 10 8 8 8 9 9 10 8 7 8 8 8 9 8 9 9 8 8 9
6 8 10 11 11 12 12 13 14 13 13 12 12 12 12 13 12 12 12 11 12 13 12 11 11 10 9 9 9 9 9 8 7 7 7 7 7 7 8 9 8 8 6 4
8 9 10 12 12 12 12 13 13 12 12 12 12 13 13 13 13 12 12 11 12 12 11 10 10 8 7 9 9 8 8 9 7 6 6 6 6 6 7 7 7 6 6 4
8 8 9 11 11 11 11 11 12 12 12 13 12 13 13 14 13 12 12 12 11 11 9 9 8 7 7 7 7 6 7 8 8 7 6 6 6 6 6 6 6 7 6 5
7 8 8 10 11 12 12 12 12 13 13 13 13 13 13 13 13 12 11 12 12 11 9 8 7 7 7 6 5 5 5 6 6 6 6 6 5 4 5 6 7 7 6 6
8 9 10 10 11 12 12 13 13 13 13 12 13 12 12 12 12 11 11 11 11 11 9 8 8 8 8 8 6 4 6 7 8 7 6 5 5 6 6 7 7 7 7 6
9 10 12 12 13 13 13 13 14 13 12 13 13 13 13 12 11 11 11 10 8 8 6 6 6 7 7 7 6 5 7 7 7 6 6 6 7 7 7 7 7 7 6 6
11 12 13 13 13 13 13 13 14 14 13 13 13 13 12 11 10 10 10 10 8 6 6 6 6 6 5 5 3 5 6 6 6 6 6 6 7 7 7 7 6 6 6 5
12 13 14 14 13 12 12 13 14 15 14 13 13 13 12 11 11 10 10 8 7 5 5 6 6 7 7 4 4 6 6 6 7 7 7 7 6 6 6 6 5 5 5 5
12 13 13 14 14 14 14 13 14 13 13 13 12 11 10 9 8 9 8 6 6 7 7 7 7 10 10 5 6 7 7 7 7 7 7 6 6 6 5 5 5 5 5 5
12 13 13 14 14 15 14 14 13 12 13 12 11 10 10 9 9 9 9 9 9 9 8 7 9 9 6 4 6 6 6 6 6 6 7 6 6 5 5 5 4 4 4 5
12 13 14 15 14 12 14 14 14 13 12 10 11 9 8 8 9 9 9 9 8 8 8 6 5 5 3 5 7 7 7 7 6 6 6 5 5 5 5 4 4 4 4 4
11 11 10 11 11 10 11 11 11 10 10 10 9 9 9 9 10 9 8 9 9 7 6 5 4 2 5 7 7 6 6 5 5 5 5 4 5 5 5 4 4 3 3 4
11 10 9 10 10 9 9 9 10 10 10 10 10 9 9 9 8 8 9 8 7 6 6 4 3 4 5 5 5 5 5 5 5 5 4 4 4 4 4 3 3 3 3 4
Wind_Direction
246 249 229 219 223 226 228 234 236 207 177 163 152 136 129 130 128 124 119 117 114 108 107 120 128 135 139 143 137 132 128 132 138 147 148 137 127 126 132 143 151 138 134 134
240 244 236 228 218 222 226 230 223 209 179 144 129 119 130 127 123 117 121 117 108 101 104 108 118 132 137 132 127 122 123 126 127 127 120 116 116 115 109 107 103 105 108 106
234 230 238 236 221 215 218 223 222 211 156 141 133 142 138 135 131 121 120 110 102 93 85 91 92 102 108 121 123 122 117 116 119 116 111 112 120 112 110 109 102 93 93 99
239 229 232 233 224 217 211 202 183 156 152 152 140 124 106 103 103 101 99 100 93 93 92 83 81 94 108 115 119 120 115 115 116 119 115 109 101 92 91 91 91 89 86 89
234 233 231 226 216 212 202 187 159 150 144 137 135 121 100 94 95 94 89 88 87 84 84 75 73 84 96 109 110 113 118 118 117 116 112 110 106 99 93 92 90 83 77 77
232 237 232 218 264 262 187 176 136 133 144 145 148 140 117 101 97 91 84 80 74 77 76 71 64 69 79 89 94 97 101 98 99 99 101 103 102 101 96 92 89 83 75 70
232 238 232 306 308 262 205 147 109 118 129 136 138 114 118 105 92 85 80 75 70 71 72 65 66 70 72 73 75 79 85 90 88 93 97 97 97 98 100 98 94 88 84 76
225 233 217 4 24 100 99 95 106 112 112 110 109 110 108 101 94 89 83 77 74 74 73 67 65 71 74 72 75 81 85 87 84 83 90 96 97 96 100 104 103 100 96 86
188 135 90 72 81 87 91 100 98 106 112 113 114 112 110 105 98 90 84 79 78 81 79 71 67 67 77 78 82 87 88 86 84 80 74 76 81 85 89 94 94 93 92 89
104 115 110 100 96 91 94 100 99 103 111 114 116 115 111 104 96 91 85 82 80 80 79 74 71 69 75 83 85 89 91 90 87 82 73 62 58 56 57 51 71 82 82 84
122 115 107 108 99 104 106 104 105 103 106 110 113 111 107 101 95 92 85 80 78 78 77 77 75 71 71 81 92 95 95 93 89 84 83 74 65 53 59 51 52 74 79 78
141 142 134 115 103 108 109 107 106 105 102 103 107 109 106 100 95 93 90 85 83 80 79 77 78 77 73 76 94 100 101 102 100 98 96 96 92 77 57 61 61 65 70 82
119 123 114 116 115 102 104 104 104 106 109 107 105 107 105 102 98 96 92 88 85 84 82 80 80 78 75 78 90 96 101 102 104 109 111 110 108 105 96 71 61 62 67 76
111 119 119 116 113 108 107 106 104 104 105 107 109 109 107 105 101 96 92 90 90 87 83 80 78 74 72 78 85 89 92 92 95 101 107 111 115 118 117 113 102 84 69 72
101 113 125 126 120 115 115 116 114 109 106 105 108 108 107 104 100 95 91 90 88 86 83 82 78 72 71 77 80 82 84 89 89 96 100 102 106 109 109 108 110 113 111 96
107 112 125 127 125 125 125 122 119 117 114 110 108 107 104 104 102 98 94 93 92 89 86 85 84 83 83 85 86 88 92 93 92 98 100 99 98 100 102 105 105 105 102 96
132 138 141 135 130 128 126 124 124 122 118 115 114 112 110 107 102 98 96 93 92 89 88 87 87 89 88 86 91 99 101 100 95 91 90 92 93 93 95 97 99 96 87 63
139 142 137 131 130 124 122 120 118 117 117 118 116 113 112 110 107 104 102 101 95 87 78 75 75 84 83 72 70 91 107 113 108 99 95 92 93 95 95 94 93 96 103 88
129 126 127 125 124 123 122 120 118 116 118 119 116 112 110 108 106 106 104 99 95 87 74 65 60 73 78 62 53 91 92 95 94 93 97 102 98 88 84 83 85 84 80 74
123 124 122 119 120 120 122 122 122 121 120 118 114 110 107 105 106 104 97 90 85 88 85 69 65 67 67 53 34 82 93 97 101 103 99 94 87 85 84 84 84 81 80 79
124 124 122 120 118 118 121 122 121 118 115 115 115 114 112 108 104 103 102 95 83 79 89 83 69 60 51 24 23 77 86 90 94 94 92 89 86 85 83 81 82 82 82 81
122 124 124 124 123 121 120 119 119 119 118 119 120 118 116 112 105 95 87 94 94 64 77 83 72 46 17 5 75 83 86 87 88 89 86 85 85 85 85 85 84 83 81 78
122 123 125 126 123 120 118 119 121 122 123 123 121 119 115 111 112 111 104 93 92 77 75 69 42 27 16 42 73 79 80 82 86 93 94 92 91 89 87 85 83 81 81 81
123 123 124 125 124 123 121 120 118 118 118 117 118 119 119 115 107 101 104 94 82 87 86 63 34 22 13 69 79 81 81 83 86 91 95 93 90 89 86 83 82 82 83 78
123 125 128 130 128 126 125 125 123 122 120 117 115 110 105 103 106 106 106 108 115 109 106 85 36 12 40 81 81 79 73 67 69 75 79 82 89 87 80 74 68 69 74 74
122 124 124 125 124 128 132 131 130 130 127 123 118 113 110 110 113 118 120 121 119 118 116 116 108 96 88 86 84 85 90 93 83 81 80 80 80 78 74 71 73 71 72 72
112 112 115 118 124 128 129 129 129 128 127 127 125 123 123 123 123 124 124 124 126 124 118 115 103 95 94 95 95 92 88 83 80 80 83 79 80 84 85 74 61 62 66 75
Height
1427 1425 1427 1430 1431 1431 1434 1436 1444 1446 1449 1448 1449 1452 1456 1459 1462 1466 1471 1475 1477 1479 1481 1484 1486 1488 1489 1490 1492 1493 1494 1494 1495 1496 1496 1497 1498 1499 1500 1500 1501 1503 1504 1506
1432 1425 1425 1428 1426 1427 1430 1431 1435 1441 1446 1445 1449 1454 1458 1460 1463 1467 1472 1475 1478 1480 1482 1484 1486 1487 1489 1490 1491 1492 1493 1494 1495 1496 1496 1497 1498 1498 1499 1500 1501 1502 1503 1504
1436 1429 1429 1436 1425 1425 1428 1427 1432 1441 1446 1447 1451 1457 1459 1462 1464 1468 1472 1476 1478 1480 1482 1483 1485 1487 1488 1490 1491 1492 1493 1494 1495 1496 1497 1497 1498 1499 1499 1500 1500 1501 1503 1504
1434 1438 1451 1430 1415 1416 1422 1426 1428 1436 1442 1447 1452 1456 1460 1463 1466 1469 1473 1476 1478 1481 1482 1484 1485 1487 1488 1490 1491 1492 1493 1494 1494 1496 1497 1498 1498 1499 1500 1500 1501 1502 1503 1504
1435 1441 1438 1425 1417 1418 1424 1430 1429 1436 1442 1448 1454 1458 1464 1467 1470 1472 1475 1477 1480 1482 1483 1484 1485 1487 1488 1489 1491 1492 1493 1494 1495 1496 1497 1498 1499 1500 1501 1502 1502 1503 1504 1505
1435 1444 1445 1432 1422 1419 1423 1437 1433 1437 1443 1448 1453 1459 1467 1470 1472 1474 1477 1479 1481 1482 1483 1484 1485 1486 1488 1490 1491 1492 1493 1494 1496 1497 1498 1499 1500 1501 1502 1503 1504 1505 1505 1506
1435 1439 1436 1430 1426 1425 1439 1443 1438 1441 1446 1450 1453 1460 1468 1470 1473 1476 1478 1480 1482 1483 1484 1485 1486 1487 1488 1490 1491 1492 1493 1495 1496 1497 1498 1500 1501 1502 1503 1504 1505 1506 1507 1508
1432 1441 1445 1433 1430 1436 1439 1438 1441 1445 1449 1453 1458 1463 1468 1472 1476 1479 1481 1482 1483 1484 1485 1486 1487 1488 1489 1490 1492 1493 1494 1495 1497 1498 1500 1501 1502 1503 1505 1505 1506 1508 1509 1510
1431 1440 1440 1437 1438 1440 1440 1443 1445 1448 1453 1457 1461 1466 1470 1474 1478 1481 1483 1484 1485 1486 1486 1487 1488 1489 1490 1491 1492 1493 1494 1496 1498 1500 1501 1503 1504 1505 1507 1508 1509 1510 1511 1512
1433 1437 1440 1440 1442 1444 1446 1447 1449 1452 1456 1460 1464 1469 1473 1476 1479 1482 1484 1486 1487 1487 1488 1489 1490 1491 1491 1492 1493 1495 1496 1498 1500 1501 1503 1504 1505 1507 1508 1510 1511 1512 1513 1514
1437 1440 1442 1443 1445 1447 1448 1451 1453 1456 1460 1463 1467 1472 1475 1478 1482 1484 1486 1488 1489 1489 1490 1491 1492 1493 1494 1495 1496 1497 1498 1500 1502 1503 1504 1506 1507 1509 1510 1512 1514 1515 1515 1516
1439 1441 1443 1446 1448 1449 1452 1455 1457 1460 1463 1468 1470 1474 1477 1481 1484 1486 1488 1489 1490 1491 1492 1494 1494 1495 1496 1497 1498 1499 1501 1503 1505 1506 1508 1509 1510 1512 1514 1515 1516 1517 1518 1519
1439 1442 1445 1448 1451 1453 1455 1458 1461 1464 1467 1470 1474 1477 1480 1483 1486 1488 1490 1491 1492 1493 1495 1496 1497 1497 1499 1500 1501 1502 1503 1505 1507 1509 1510 1512 1513 1515 1516 1519 1520 1521 1521 1522
1442 1444 1448 1450 1453 1456 1458 1462 1465 1468 1471 1474 1477 1480 1483 1486 1488 1490 1492 1494 1495 1496 1497 1498 1499 1500 1502 1503 1504 1505 1507 1509 1510 1512 1514 1515 1517 1518 1520 1521 1522 1524 1525 1525
1444 1446 1450 1453 1456 1459 1462 1465 1468 1471 1474 1477 1480 1483 1486 1488 1491 1493 1495 1497 1498 1499 1500 1501 1502 1503 1505 1506 1507 1508 1510 1511 1513 1515 1517 1518 1520 1522 1523 1525 1526 1527 1528 1529
1446 1449 1452 1454 1457 1461 1464 1467 1470 1474 1477 1480 1483 1486 1489 1491 1494 1496 1498 1500 1501 1502 1503 1505 1506 1507 1508 1509 1510 1512 1513 1515 1517 1518 1520 1522 1523 1525 1526 1528 1529 1530 1531 1532
1449 1452 1455 1456 1460 1463 1466 1469 1473 1476 1479 1482 1485 1488 1491 1494 1496 1499 1501 1503 1504 1505 1507 1508 1509 1511 1512 1513 1514 1516 1517 1519 1520 1522 1524 1525 1526 1528 1529 1530 1531 1532 1533 1534
1452 1454 1456 1458 1461 1464 1468 1472 1475 1478 1482 1485 1488 1491 1494 1497 1499 1502 1504 1505 1507 1509 1511 1512 1513 1514 1515 1516 1517 1519 1520 1522 1524 1525 1527 1528 1529 1531 1532 1533 1534 1535 1535 1536
1453 1455 1458 1461 1464 1467 1470 1474 1477 1481 1484 1488 1491 1493 1497 1500 1502 1505 1507 1509 1510 1512 1514 1515 1517 1518 1519 1520 1521 1522 1524 1525 1526 1528 1529 1531 1532 1533 1534 1535 1536 1537 1538 1538
1454 1457 1459 1463 1466 1469 1473 1476 1480 1483 1487 1491 1493 1496 1499 1503 1505 1508 1510 1512 1513 1515 1517 1518 1520 1521 1522 1523 1524 1525 1526 1528 1529 1530 1532 1533 1534 1535 1536 1537 1538 1539 1539 1539
1456 1459 1462 1465 1469 1473 1476 1479 1482 1486 1490 1493 1496 1499 1502 1506 1508 1511 1512 1514 1517 1518 1520 1521 1522 1523 1525 1525 1526 1528 1529 1530 1531 1532 1534 1535 1536 1537 1538 1539 1540 1540 1541 1541
1459 1462 1465 1469 1472 1476 1480 1483 1486 1489 1493 1497 1500 1503 1505 1508 1511 1513 1515 1517 1519 1521 1523 1524 1525 1526 1527 1528 1529 1530 1531 1532 1533 1534 1535 1536 1537 1538 1539 1540 1541 1541 1542 1542
1462 1465 1469 1472 1476 1479 1484 1487 1490 1493 1497 1500 1503 1506 1508 1511 1514 1516 1518 1520 1522 1523 1524 1525 1527 1528 1529 1530 1531 1532 1533 1534 1535 1536 1537 1538 1539 1540 1541 1541 1542 1542 1542 1542
1466 1469 1473 1476 1480 1483 1487 1491 1494 1497 1500 1503 1506 1509 1512 1514 1517 1519 1520 1522 1524 1525 1526 1527 1529 1530 1531 1533 1534 1534 1535 1536 1537 1538 1539 1539 1540 1541 1542 1542 1543 1543 1543 1543
1469 1472 1476 1479 1483 1486 1490 1494 1497 1501 1504 1507 1510 1513 1516 1518 1519 1521 1523 1524 1526 1528 1529 1530 1531 1532 1533 1535 1535 1536 1537 1537 1538 1539 1540 1541 1542 1542 1542 1543 1543 1543 1543 1543
1473 1476 1479 1482 1486 1490 1493 1497 1500 1504 1507 1510 1513 1516 1518 1520 1522 1524 1525 1527 1529 1530 1532 1533 1534 1535 1536 1536 1537 1537 1538 1539 1540 1541 1541 1542 1543 1543 1543 1543 1544 1544 1543 1543
1477 1480 1483 1486 1490 1493 1497 1500 1503 1506 1510 1512 1515 1518 1520 1523 1525 1527 1528 1530 1532 1533 1534 1535 1536 1537 1538 1538 1539 1539 1540 1541 1541 1542 1542 1543 1543 1543 1543 1543 1544 1543 1543 1543